FW2519 Weather Reports


time (UTC)temp
C
wind
direction
speed
KPH
gust
KPH
rain 1hr
cm
rain 24hr
cm
rain mn
cm
humidity
%
barometer
mb
20260505001549 21 224 0.0 4.8 0.00 0.00 0.00 27 957.0
20260505000057 21 224 1.6 9.7 0.00 0.00 0.00 25 956.9
20260504234547 22 222 1.6 8.0 0.00 0.00 0.00 24 956.7
20260504233008 22 227 3.2 9.7 0.00 0.00 0.00 22 956.5
20260504231505 23 224 4.8 17.7 0.00 0.00 0.00 21 956.5
20260504230100 23 227 6.4 17.7 0.00 0.00 0.00 20 956.5
20260504230002 23 242 6.4 17.7 0.00 0.00 0.00 20 956.5
20260504224609 25 217 4.8 14.5 0.00 0.00 0.00 20 956.4
20260504223134 25 196 8.0 22.5 0.00 0.00 0.00 18 956.6
20260504221558 25 234 4.8 14.5 0.00 0.00 0.00 18 956.5
20260504220058 25 233 6.4 17.7 0.00 0.00 0.00 16 956.4
20260504214554 26 200 8.0 14.5 0.00 0.00 0.00 15 956.5
20260504213103 25 240 8.0 17.7 0.00 0.00 0.00 17 956.4
20260504211552 25 136 6.4 16.1 0.00 0.00 0.00 18 956.5
20260504210057 25 140 3.2 20.9 0.00 0.00 0.00 20 956.5
20260504204549 25 240 6.4 14.5 0.00 0.00 0.00 19 956.6
20260504203059 26 281 4.8 14.5 0.00 0.00 0.00 17 956.7
20260504201542 25 221 4.8 11.3 0.00 0.00 0.00 17 956.8
20260504200038 25 134 8.0 16.1 0.00 0.00 0.00 20 957.2
20260504194506 25 231 4.8 17.7 0.00 0.00 0.00 19 957.4
20260504193004 24 236 6.4 14.5 0.00 0.00 0.00 22 957.4
20260504191603 24 232 3.2 16.1 0.00 0.00 0.00 22 957.7
20260504190100 24 221 3.2 16.1 0.00 0.00 0.00 19 957.5
20260504184559 24 131 6.4 12.9 0.00 0.00 0.00 18 957.8
20260504183054 24 219 1.6 14.5 0.00 0.00 0.00 23 958.0
20260504181549 23 202 3.2 11.3 0.00 0.00 0.00 22 958.1
20260504180045 23 206 3.2 12.9 0.00 0.00 0.00 23 958.4
20260504174541 23 138 3.2 14.5 0.00 0.00 0.00 24 958.3
20260504173034 22 117 3.2 9.7 0.00 0.00 0.00 24 958.4
20260504171529 22 144 6.4 11.3 0.00 0.00 0.00 25 958.8
20260504081506 6 222 0.0 3.2 0.00 0.00 0.00 39 959.2
20260504050007 10 221 0.0 0.0 0.00 0.00 0.00 56 959.2
20260504044512 10 221 0.0 0.0 0.00 0.00 0.00 56 959.2
20260504043005 10 221 0.0 0.0 0.00 0.00 0.00 55 959.3
20260504041559 10 221 0.0 3.2 0.00 0.00 0.00 55 959.3
20260504040107 10 223 0.0 0.0 0.00 0.00 0.00 55 959.5